Hourly Data Report for October 08, 2014

All times are specified in Local Standard Time (LST). Add 1 hour to adjust for Daylight Saving Time where and when it is observed.

CAPE DORSET A
NUNAVUT

64°13'49.000" N
76°31'30.000" W
48.20 m
2400637
71366
YTE

Download Data

Hourly Data (October 2014)
Hourly Data Report for October 8, 2014
Temp Definition
°C
Dew Point Temp Definition
°C
Rel Hum Definition
%
Wind Dir Definition
10's deg

Wind Spd Definition
km/h
Visibility Definition
km
Stn Press Definition
kPa
Hmdx Definition


Wind Chill Definition


Weather Definition


TIME
00:00 Legend Double Dagger 0.5 LegendMM LegendMM 9 17 8.1 101.16     Haze
01:00 Legend Double Dagger 0.6 LegendMM LegendMM 8 13 8.1 101.15     Haze
02:00 Legend Double Dagger 0.6 0.6 100 7 13 11.3 101.13     LegendNANA
03:00 Legend Double Dagger 0.6 0.3 98 4 9 9.7 101.11     Fog
04:00 Legend Double Dagger 0.4 LegendMM LegendMM 3 5 8.1 101.07     Haze
05:00 Legend Double Dagger 0.5 LegendMM LegendMM 3 5 9.7 101.05     Haze
06:00 Legend Double Dagger 0.9 0.2 95 36 15 12.9 101.02     LegendNANA
07:00 Legend Double Dagger 0.5 LegendMM LegendMM 2 9 16.1 101.00     LegendNANA
08:00 Legend Double Dagger 0.3 LegendMM LegendMM 5 18 16.1 100.98     LegendNANA
09:00 Legend Double Dagger 0.3 LegendMM LegendMM 4 15 16.1 100.97     LegendNANA
10:00 Legend Double Dagger 0.7 0.3 97 5 22 16.1 100.94     LegendNANA
11:00 Legend Double Dagger 0.8 0.1 95 7 18 16.1 100.94     LegendNANA
12:00 Legend Double Dagger 1.2 -0.5 88 6 18 16.1 100.92     LegendNANA
13:00 Legend Double Dagger 1.2 -0.6 88 6 21 16.1 100.93     LegendNANA
14:00 Legend Double Dagger 1.1 -0.5 89 6 17 16.1 100.93     LegendNANA
15:00 Legend Double Dagger 1.1 -0.5 89 5 21 16.1 100.93     LegendNANA
16:00 Legend Double Dagger 1.1 -0.5 89 5 21 16.1 100.95     LegendNANA
17:00 Legend Double Dagger 0.9 -0.7 89 5 21 16.1 100.93     LegendNANA
18:00 Legend Double Dagger 0.8 -0.7 90 5 24 16.1 100.96     LegendNANA
19:00 Legend Double Dagger 0.6 -1.2 88 5 26 16.1 100.95     LegendNANA
20:00 Legend Double Dagger 0.5 -1.3 88 5 28 16.1 100.97     LegendNANA
21:00 Legend Double Dagger 0.4 -1.2 89 5 26 16.1 100.99     LegendNANA
22:00 Legend Double Dagger 0.0 -1.4 90 5 26 16.1 100.98   -6 LegendNANA
23:00 Legend Double Dagger -0.5 -1.9 90 5 22 16.1 100.98   -6 LegendNANA

Notes on Data Quality.

Legend

  • E = Estimated
  • M = Missing
  • NA = Not Available
  • ‡ = Partner data that is not subject to review by the National Climate Archives
Date modified: